sat.trackr.live / text

‹ back to catalog

STARLINK-30567

NORAD 58067 · 2023-158S

PAYLOAD ACTIVE UNKNOWN

§ Identity

Operator
Country
US
Launch date
2023-10-13
Launch site
AFETR
Launch vehicle
Mass (kg)
RCS (m²)

Purposes: comms

External: N2YO · Heavens-Above · Gunter

§ Orbital elements

Epoch: 2026-05-24T18:45:18.604512Z

Period
94.27 min
Inclination
43.0012°
Eccentricity
0.0001437
Mean motion
15.27574075 rev/d
Perigee alt
482.1 km
Apogee alt
484.1 km
Semi-major
6,861.2 km
B*
1.5912e-5
RAAN
317.6147°
Arg perigee
273.5279°
Mean anomaly
86.5408°
Rev number
14,520

§ Raw data

STARLINK-305671 58067U 23158S   26144.78146533  .00000176  00000+0  15912-4 0  99942 58067  43.0012 317.6147 0001437 273.5279  86.5408 15.27574075145203

JSON: /api/v1/satellites/58067 · /tle

For live sub-satellite position, see the globe view (requires WebGL).

§ Visibility from observer

Set your observer location to see the next 7 days of passes ≥ 10°. The values pass through the URL so the page stays shareable.

No JS? Fill the form by hand. The geolocation button needs JavaScript.